This is the latest recevied weather packets stored in our database for station/object SR9NSK-1. If no packets are shown the sender has not sent any weather packets the latest 1 day(s).
| Time | Temp. | Humidity | Pressure | Rain* | Wind** | Luminosity | Snow |
|---|---|---|---|---|---|---|---|
| 1778021493 | 10° C | 53% | 867.9 hPa | - | 7.6 m/s, 124° | - | - |
| 1778021373 | 10° C | 53% | 867.9 hPa | - | 6.26 m/s, 133° | - | - |
| 1778021253 | 10° C | 53% | 868 hPa | - | 5.81 m/s, 130° | - | - |
| 1778021133 | 10° C | 53% | 868 hPa | - | 6.26 m/s, 134° | - | - |
| 1778021011 | 10° C | 53% | 868 hPa | - | 7.6 m/s, 122° | - | - |
| 1778020891 | 10° C | 53% | 868 hPa | - | 8.05 m/s, 135° | - | - |
| 1778020771 | 10° C | 53% | 867.9 hPa | - | 6.26 m/s, 125° | - | - |
| 1778020651 | 10° C | 53% | 867.8 hPa | - | 8.05 m/s, 151° | - | - |
| 1778020531 | 10° C | 53% | 867.9 hPa | - | 8.05 m/s, 162° | - | - |
| 1778020409 | 10° C | 53% | 868 hPa | - | 8.05 m/s, 137° | - | - |
| 1778020289 | 10° C | 53% | 868 hPa | - | 7.15 m/s, 127° | - | - |
| 1778020169 | 10° C | 53% | 868 hPa | - | 6.26 m/s, 128° | - | - |
| 1778020049 | 10° C | 53% | 868 hPa | - | 8.05 m/s, 134° | - | - |
| 1778019929 | 10° C | 53% | 868.1 hPa | - | 5.81 m/s, 130° | - | - |
| 1778019809 | 10° C | 52% | 868 hPa | - | 6.26 m/s, 126° | - | - |
| 1778019689 | 10° C | 53% | 868 hPa | - | 8.49 m/s, 130° | - | - |
| 1778019569 | 10° C | 52% | 868.1 hPa | - | 7.15 m/s, 125° | - | - |
| 1778019449 | 10° C | 52% | 868.2 hPa | - | 8.05 m/s, 140° | - | - |
| 1778019329 | 10° C | 53% | 868.3 hPa | - | 5.81 m/s, 136° | - | - |
| 1778019207 | 10° C | 52% | 868.2 hPa | - | 5.81 m/s, 116° | - | - |
| 1778019087 | 10° C | 52% | 868.2 hPa | - | 8.05 m/s, 127° | - | - |
| 1778018967 | 10° C | 52% | 868.2 hPa | - | 7.6 m/s, 133° | - | - |
| 1778018845 | 10° C | 52% | 868.3 hPa | - | 6.71 m/s, 131° | - | - |
| 1778018725 | 10° C | 52% | 868.3 hPa | - | 7.15 m/s, 141° | - | - |
| 1778018605 | 10° C | 52% | 868.4 hPa | - | 7.15 m/s, 139° | - | - |
* Rain since midnight (hover to see other rain measurements)
** Current wind speed in m/s (hover to see current wind gust speed)